www.hobby-wetter-faasend.de
Wetterdaten: aktuell Sonntag, 19.11.2017 20:45
Datum Zeit Temp. A. Temp. A. min Temp. A. max Feuchte A. Luftdruck Regen Wind Richtung Richtung Sonnenschein Taupunkt Windchill Windben
19.11.2017 20:45 4,0 C 4,0 C 4,4 C 82 % 1023,9 hPa 0,0 l/m 0,1 km/h (0 Bft) W-SW 240 0 min 1,2 C 4,0 C 1,6 km/h (1 Bft)
19.11.2017 20:30 4,3 C 4,3 C 4,6 C 82 % 1023,8 hPa 0,0 l/m 0,4 km/h (0 Bft) W-SW 240 0 min 1,5 C 4,3 C 6,4 km/h (2 Bft)
19.11.2017 20:15 4,6 C 4,6 C 4,7 C 82 % 1023,6 hPa 0,0 l/m 1,2 km/h (1 Bft) W-NW 298 0 min 1,8 C 4,6 C 11,3 km/h (2 Bft)
19.11.2017 20:00 4,7 C 4,7 C 4,8 C 81 % 1023,5 hPa 0,0 l/m 0,8 km/h (0 Bft) W-NW 296 0 min 1,7 C 4,7 C 6,4 km/h (2 Bft)
19.11.2017 19:45 4,8 C 4,8 C 4,9 C 81 % 1023,4 hPa 0,0 l/m 0,4 km/h (0 Bft) NW 309 0 min 1,8 C 4,8 C 9,7 km/h (2 Bft)
19.11.2017 19:30 4,9 C 4,9 C 5,1 C 80 % 1023,1 hPa 0,0 l/m 0,4 km/h (0 Bft) W-NW 297 0 min 1,7 C 4,9 C 9,7 km/h (2 Bft)
19.11.2017 19:15 5,1 C 5,1 C 5,2 C 80 % 1022,8 hPa 0,0 l/m 2,2 km/h (1 Bft) W-SW 245 0 min 1,9 C 5,1 C 12,9 km/h (3 Bft)
19.11.2017 19:00 5,2 C 5,2 C 5,3 C 80 % 1022,6 hPa 0,0 l/m 1,3 km/h (1 Bft) W 269 0 min 2,0 C 5,2 C 9,7 km/h (2 Bft)
19.11.2017 18:45 5,3 C 5,3 C 5,4 C 80 % 1022,5 hPa 0,0 l/m 0,8 km/h (0 Bft) SW 227 0 min 2,1 C 5,3 C 6,4 km/h (2 Bft)
19.11.2017 18:30 5,4 C 5,4 C 5,7 C 80 % 1022,4 hPa 0,0 l/m 1,1 km/h (1 Bft) W 265 0 min 2,2 C 5,4 C 9,7 km/h (2 Bft)
19.11.2017 18:16 5,7 C 5,7 C 5,9 C 79 % 1022,1 hPa 0,0 l/m 0,6 km/h (0 Bft) W-SW 238 0 min 2,3 C 5,7 C 6,4 km/h (2 Bft)
19.11.2017 18:00 5,8 C 5,8 C 6,0 C 78 % 1021,9 hPa 0,0 l/m 1,7 km/h (1 Bft) S-SW 211 0 min 2,3 C 5,8 C 12,9 km/h (3 Bft)
19.11.2017 17:45 6,0 C 6,0 C 6,2 C 77 % 1021,9 hPa 0,0 l/m 0,9 km/h (0 Bft) W 262 0 min 2,3 C 6,0 C 11,3 km/h (2 Bft)
19.11.2017 17:30 6,2 C 6,2 C 6,3 C 77 % 1021,7 hPa 0,0 l/m 0,4 km/h (0 Bft) SW 236 0 min 2,5 C 6,2 C 6,4 km/h (2 Bft)
19.11.2017 17:15 6,3 C 6,3 C 6,4 C 77 % 1021,7 hPa 0,0 l/m 0,7 km/h (0 Bft) W 263 0 min 2,6 C 6,3 C 6,4 km/h (2 Bft)
19.11.2017 17:00 6,4 C 6,4 C 6,6 C 76 % 1021,5 hPa 0,0 l/m 1,1 km/h (1 Bft) SW 236 0 min 2,5 C 6,4 C 8,0 km/h (2 Bft)
19.11.2017 16:45 6,6 C 6,6 C 6,8 C 75 % 1021,6 hPa 0,0 l/m 0,5 km/h (0 Bft) S 187 0 min 2,5 C 6,6 C 6,4 km/h (2 Bft)
19.11.2017 16:30 6,8 C 6,8 C 7,1 C 75 % 1021,4 hPa 0,0 l/m 0,2 km/h (0 Bft) S-SW 192 0 min 2,7 C 6,8 C 3,2 km/h (1 Bft)
19.11.2017 16:15 7,1 C 7,1 C 7,2 C 74 % 1021,3 hPa 0,0 l/m 0,3 km/h (0 Bft) S-SO 161 0 min 2,8 C 7,1 C 8,0 km/h (2 Bft)
19.11.2017 16:00 7,2 C 7,2 C 7,2 C 73 % 1021,2 hPa 0,0 l/m 1,9 km/h (1 Bft) SW 224 0 min 2,7 C 7,2 C 11,3 km/h (2 Bft)
19.11.2017 15:45 7,2 C 7,2 C 7,3 C 72 % 1021,2 hPa 0,0 l/m 2,6 km/h (1 Bft) NW 308 0 min 2,5 C 7,2 C 16,1 km/h (3 Bft)
19.11.2017 15:30 7,3 C 7,3 C 7,4 C 71 % 1021,0 hPa 0,0 l/m 1,6 km/h (1 Bft) W-SW 248 0 min 2,4 C 7,3 C 12,9 km/h (3 Bft)
19.11.2017 15:15 7,4 C 7,4 C 7,5 C 71 % 1021,1 hPa 0,0 l/m 1,0 km/h (0 Bft) W-NW 296 0 min 2,5 C 7,4 C 11,3 km/h (2 Bft)
19.11.2017 15:00 7,4 C 7,4 C 7,6 C 71 % 1021,1 hPa 0,0 l/m 2,5 km/h (1 Bft) W 277 0 min 2,5 C 7,4 C 11,3 km/h (2 Bft)
19.11.2017 14:45 7,6 C 7,2 C 7,6 C 72 % 1020,9 hPa 0,0 l/m 1,7 km/h (1 Bft) W 271 0 min 2,9 C 7,6 C 12,9 km/h (3 Bft)
19.11.2017 14:30 7,2 C 7,2 C 7,3 C 72 % 1020,8 hPa 0,0 l/m 2,2 km/h (1 Bft) W-NW 301 0 min 2,5 C 7,2 C 11,3 km/h (2 Bft)
19.11.2017 14:15 7,3 C 7,2 C 7,3 C 73 % 1020,7 hPa 0,0 l/m 2,8 km/h (1 Bft) W-NW 289 0 min 2,8 C 7,3 C 14,5 km/h (3 Bft)
19.11.2017 14:00 7,3 C 7,2 C 7,3 C 74 % 1020,9 hPa 0,0 l/m 2,9 km/h (1 Bft) W-NW 286 0 min 3,0 C 7,3 C 11,3 km/h (2 Bft)
19.11.2017 13:45 7,3 C 7,2 C 7,3 C 74 % 1021,0 hPa 0,0 l/m 2,9 km/h (1 Bft) W 270 0 min 3,0 C 7,3 C 14,5 km/h (3 Bft)
19.11.2017 13:30 7,2 C 7,1 C 7,2 C 74 % 1020,9 hPa 0,0 l/m 1,8 km/h (1 Bft) N-NW 331 0 min 2,9 C 7,2 C 12,9 km/h (3 Bft)
19.11.2017 13:15 7,1 C 6,9 C 7,1 C 73 % 1020,8 hPa 0,0 l/m 2,9 km/h (1 Bft) W 261 0 min 2,6 C 7,1 C 14,5 km/h (3 Bft)
19.11.2017 13:00 7,0 C 7,0 C 7,5 C 74 % 1020,7 hPa 0,0 l/m 2,3 km/h (1 Bft) NW 313 0 min 2,7 C 7,0 C 11,3 km/h (2 Bft)
19.11.2017 12:45 7,5 C 7,5 C 7,7 C 74 % 1020,7 hPa 0,0 l/m 2,4 km/h (1 Bft) NW 321 0 min 3,2 C 7,5 C 12,9 km/h (3 Bft)
19.11.2017 12:30 7,6 C 7,2 C 7,6 C 76 % 1020,7 hPa 0,0 l/m 1,6 km/h (1 Bft) NW 313 0 min 3,6 C 7,6 C 14,5 km/h (3 Bft)
19.11.2017 12:15 7,2 C 6,8 C 7,2 C 77 % 1020,8 hPa 0,0 l/m 1,5 km/h (1 Bft) SW 231 0 min 3,4 C 7,2 C 11,3 km/h (2 Bft)
19.11.2017 12:00 6,8 C 6,8 C 7,3 C 78 % 1020,8 hPa 0,0 l/m 2,6 km/h (1 Bft) W-NW 286 0 min 3,2 C 6,8 C 17,7 km/h (3 Bft)
19.11.2017 11:45 7,3 C 7,3 C 7,6 C 77 % 1020,7 hPa 0,0 l/m 2,9 km/h (1 Bft) W-SW 243 0 min 3,5 C 7,3 C 14,5 km/h (3 Bft)
19.11.2017 11:30 7,5 C 6,8 C 7,5 C 78 % 1020,7 hPa 0,0 l/m 1,1 km/h (1 Bft) NW 322 0 min 3,9 C 7,5 C 12,9 km/h (3 Bft)
19.11.2017 11:16 6,8 C 6,7 C 6,8 C 79 % 1020,6 hPa 0,0 l/m 3,5 km/h (1 Bft) W 268 0 min 3,4 C 6,8 C 16,1 km/h (3 Bft)
19.11.2017 11:00 6,7 C 6,6 C 6,8 C 80 % 1020,6 hPa 0,0 l/m 2,0 km/h (1 Bft) NW 316 0 min 3,5 C 6,7 C 11,3 km/h (2 Bft)
19.11.2017 10:45 6,7 C 6,3 C 6,7 C 82 % 1020,5 hPa 0,0 l/m 1,5 km/h (1 Bft) W-NW 288 0 min 3,8 C 6,7 C 14,5 km/h (3 Bft)
19.11.2017 10:30 6,3 C 5,9 C 6,3 C 83 % 1020,5 hPa 0,0 l/m 1,8 km/h (1 Bft) NW 309 0 min 3,6 C 6,3 C 14,5 km/h (3 Bft)
19.11.2017 10:15 5,9 C 5,7 C 6,1 C 84 % 1020,2 hPa 0,0 l/m 2,0 km/h (1 Bft) NW 311 0 min 3,4 C 5,9 C 12,9 km/h (3 Bft)
19.11.2017 10:00 5,7 C 5,3 C 5,7 C 86 % 1019,9 hPa 0,0 l/m 0,9 km/h (0 Bft) W 261 0 min 3,5 C 5,7 C 8,0 km/h (2 Bft)
19.11.2017 09:45 5,3 C 4,9 C 5,3 C 88 % 1019,9 hPa 0,0 l/m 0,5 km/h (0 Bft) N-NW 338 0 min 3,5 C 5,3 C 6,4 km/h (2 Bft)
19.11.2017 09:30 4,9 C 4,4 C 4,9 C 90 % 1019,7 hPa 0,0 l/m 1,2 km/h (1 Bft) N-NW 339 0 min 3,4 C 4,9 C 11,3 km/h (2 Bft)
19.11.2017 09:15 4,4 C 3,8 C 4,4 C 92 % 1019,5 hPa 0,0 l/m 0,2 km/h (0 Bft) W-SW 251 0 min 3,2 C 4,4 C 4,8 km/h (1 Bft)
19.11.2017 09:00 3,8 C 3,5 C 3,8 C 93 % 1019,4 hPa 0,0 l/m 0,0 km/h (0 Bft) S 188 0 min 2,8 C 3,8 C 0,0 km/h (0 Bft)
19.11.2017 08:45 3,6 C 3,0 C 3,6 C 93 % 1019,3 hPa 0,0 l/m 0,1 km/h (0 Bft) S-SW 194 0 min 2,6 C 3,6 C 4,8 km/h (1 Bft)
19.11.2017 08:30 3,0 C 3,0 C 3,1 C 93 % 1019,0 hPa 0,0 l/m 0,2 km/h (0 Bft) W-SW 257 0 min 2,0 C 3,0 C 4,8 km/h (1 Bft)
19.11.2017 08:15 3,1 C 3,1 C 3,3 C 93 % 1018,9 hPa 0,0 l/m 0,0 km/h (0 Bft) W-SW 245 0 min 2,1 C 3,1 C 1,6 km/h (1 Bft)
19.11.2017 08:00 3,3 C 3,3 C 3,5 C 93 % 1018,7 hPa 0,0 l/m 0,2 km/h (0 Bft) W-SW 245 0 min 2,3 C 3,3 C 4,8 km/h (1 Bft)
19.11.2017 07:45 3,5 C 3,5 C 3,8 C 93 % 1018,4 hPa 0,0 l/m 0,3 km/h (0 Bft) W-SW 250 0 min 2,5 C 3,5 C 3,2 km/h (1 Bft)
19.11.2017 07:30 3,8 C 3,8 C 4,1 C 93 % 1018,0 hPa 0,0 l/m 1,3 km/h (1 Bft) W-SW 250 0 min 2,8 C 3,8 C 12,9 km/h (3 Bft)
19.11.2017 07:15 4,1 C 4,1 C 4,3 C 93 % 1017,8 hPa 0,0 l/m 0,8 km/h (0 Bft) NW 321 0 min 3,1 C 4,1 C 9,7 km/h (2 Bft)
19.11.2017 07:00 4,3 C 4,3 C 4,7 C 94 % 1017,7 hPa 0,0 l/m 1,5 km/h (1 Bft) NW 321 0 min 3,4 C 4,3 C 9,7 km/h (2 Bft)
19.11.2017 06:45 4,7 C 4,7 C 5,1 C 94 % 1017,5 hPa 0,2 l/m 1,5 km/h (1 Bft) W-NW 290 0 min 3,8 C 4,7 C 11,3 km/h (2 Bft)
19.11.2017 06:30 5,1 C 5,1 C 5,3 C 94 % 1017,3 hPa 0,0 l/m 3,1 km/h (1 Bft) NW 306 0 min 4,2 C 5,1 C 19,3 km/h (3 Bft)
19.11.2017 06:15 5,3 C 5,3 C 5,4 C 95 % 1017,1 hPa 0,0 l/m 2,2 km/h (1 Bft) W 259 0 min 4,6 C 5,3 C 17,7 km/h (3 Bft)
19.11.2017 06:00 5,4 C 5,4 C 5,5 C 95 % 1017,1 hPa 0,0 l/m 3,5 km/h (1 Bft) N-NW 340 0 min 4,7 C 5,4 C 17,7 km/h (3 Bft)
19.11.2017 05:45 5,5 C 5,4 C 5,6 C 95 % 1017,1 hPa 0,0 l/m 2,7 km/h (1 Bft) W-NW 289 0 min 4,8 C 5,5 C 17,7 km/h (3 Bft)
19.11.2017 05:30 5,6 C 5,6 C 5,7 C 95 % 1016,8 hPa 0,0 l/m 3,9 km/h (1 Bft) W 272 0 min 4,9 C 5,6 C 16,1 km/h (3 Bft)
19.11.2017 05:16 5,7 C 5,7 C 5,8 C 95 % 1016,7 hPa 0,0 l/m 2,5 km/h (1 Bft) NW 306 0 min 5,0 C 5,7 C 17,7 km/h (3 Bft)
19.11.2017 05:00 5,8 C 5,7 C 5,8 C 95 % 1016,8 hPa 0,0 l/m 1,1 km/h (1 Bft) W 265 0 min 5,1 C 5,8 C 8,0 km/h (2 Bft)
19.11.2017 04:45 5,7 C 5,6 C 5,7 C 95 % 1016,9 hPa 0,0 l/m 2,5 km/h (1 Bft) NW 305 0 min 5,0 C 5,7 C 12,9 km/h (3 Bft)
19.11.2017 04:31 5,6 C 5,5 C 5,6 C 95 % 1016,8 hPa 0,0 l/m 1,2 km/h (1 Bft) W 276 0 min 4,9 C 5,6 C 14,5 km/h (3 Bft)
19.11.2017 04:15 5,6 C 5,4 C 5,6 C 95 % 1016,8 hPa 0,0 l/m 2,0 km/h (1 Bft) W 278 0 min 4,9 C 5,6 C 17,7 km/h (3 Bft)
19.11.2017 04:00 5,4 C 5,4 C 5,4 C 95 % 1016,7 hPa 0,0 l/m 0,8 km/h (0 Bft) W 263 0 min 4,7 C 5,4 C 11,3 km/h (2 Bft)
19.11.2017 03:45 5,4 C 5,3 C 5,4 C 95 % 1016,7 hPa 0,0 l/m 1,1 km/h (1 Bft) W 275 0 min 4,7 C 5,4 C 6,4 km/h (2 Bft)
19.11.2017 03:30 5,3 C 5,3 C 5,3 C 95 % 1016,8 hPa 0,0 l/m 0,7 km/h (0 Bft) S-SW 209 0 min 4,6 C 5,3 C 6,4 km/h (2 Bft)
19.11.2017 03:15 5,3 C 5,2 C 5,3 C 95 % 1016,8 hPa 0,0 l/m 1,4 km/h (1 Bft) SW 218 0 min 4,6 C 5,3 C 12,9 km/h (3 Bft)
19.11.2017 03:00 5,2 C 5,1 C 5,2 C 95 % 1016,9 hPa 0,2 l/m 4,4 km/h (1 Bft) W-NW 293 0 min 4,5 C 5,2 C 17,7 km/h (3 Bft)
19.11.2017 02:45 5,1 C 5,0 C 5,1 C 94 % 1017,0 hPa 0,2 l/m 1,7 km/h (1 Bft) S-SW 197 0 min 4,2 C 5,1 C 16,1 km/h (3 Bft)
19.11.2017 02:30 5,0 C 4,9 C 5,0 C 94 % 1017,0 hPa 0,0 l/m 1,3 km/h (1 Bft) S-SW 194 0 min 4,1 C 5,0 C 9,7 km/h (2 Bft)
19.11.2017 02:15 4,9 C 4,8 C 4,9 C 94 % 1017,1 hPa 0,2 l/m 2,7 km/h (1 Bft) S-SW 209 0 min 4,0 C 4,9 C 17,7 km/h (3 Bft)
19.11.2017 02:00 4,8 C 4,8 C 4,8 C 94 % 1016,9 hPa 0,2 l/m 4,0 km/h (1 Bft) SO 130 0 min 3,9 C 4,8 C 14,5 km/h (3 Bft)
19.11.2017 01:45 4,8 C 4,7 C 4,8 C 94 % 1017,6 hPa 0,2 l/m 4,3 km/h (1 Bft) S-SO 161 0 min 3,9 C 4,8 C 17,7 km/h (3 Bft)
19.11.2017 01:30 4,7 C 4,7 C 4,8 C 94 % 1018,0 hPa 0,0 l/m 2,8 km/h (1 Bft) SW 221 0 min 3,8 C 4,7 C 16,1 km/h (3 Bft)
19.11.2017 01:16 4,7 C 4,6 C 4,7 C 94 % 1017,7 hPa 0,2 l/m 5,8 km/h (2 Bft) S-SW 205 0 min 3,8 C 4,7 C 20,9 km/h (4 Bft)
19.11.2017 01:00 4,6 C 4,5 C 4,6 C 94 % 1017,9 hPa 0,2 l/m 4,2 km/h (1 Bft) S-SW 207 0 min 3,7 C 4,6 C 14,5 km/h (3 Bft)
19.11.2017 00:45 4,6 C 4,5 C 4,6 C 93 % 1018,0 hPa 0,0 l/m 4,8 km/h (1 Bft) S-SO 164 0 min 3,6 C 4,6 C 29,0 km/h (5 Bft)
19.11.2017 00:30 4,6 C 4,6 C 4,7 C 93 % 1017,7 hPa 0,6 l/m 7,7 km/h (2 Bft) S-SW 206 0 min 3,6 C 3,4 C 29,0 km/h (5 Bft)
19.11.2017 00:15 4,7 C 4,7 C 4,7 C 92 % 1018,8 hPa 0,4 l/m 3,6 km/h (1 Bft) S 188 0 min 3,5 C 4,7 C 14,5 km/h (3 Bft)
19.11.2017 00:00 4,7 C 4,7 C 4,8 C 92 % 1019,4 hPa 0,6 l/m 2,2 km/h (1 Bft) S 188 0 min 3,5 C 4,7 C 11,3 km/h (2 Bft)
18.11.2017 23:45 4,8 C 4,8 C 4,8 C 91 % 1019,4 hPa 0,6 l/m 3,8 km/h (1 Bft) SW 214 0 min 3,5 C 4,8 C 16,1 km/h (3 Bft)
18.11.2017 23:30 4,8 C 4,8 C 4,9 C 91 % 1019,6 hPa 0,4 l/m 3,4 km/h (1 Bft) W-SW 241 0 min 3,5 C 4,8 C 14,5 km/h (3 Bft)
18.11.2017 23:15 4,8 C 4,8 C 4,9 C 90 % 1019,6 hPa 0,0 l/m 2,2 km/h (1 Bft) S-SW 207 0 min 3,3 C 4,8 C 14,5 km/h (3 Bft)
18.11.2017 23:00 4,9 C 4,8 C 4,9 C 89 % 1019,7 hPa 0,2 l/m 1,6 km/h (1 Bft) S-SW 200 0 min 3,2 C 4,9 C 9,7 km/h (2 Bft)
18.11.2017 22:45 4,9 C 4,9 C 4,9 C 89 % 1019,8 hPa 0,0 l/m 1,5 km/h (1 Bft) W 274 0 min 3,2 C 4,9 C 9,7 km/h (2 Bft)
18.11.2017 22:30 4,9 C 4,9 C 4,9 C 88 % 1019,9 hPa 0,0 l/m 1,0 km/h (0 Bft) S 177 0 min 3,1 C 4,9 C 8,0 km/h (2 Bft)
18.11.2017 22:15 4,9 C 4,9 C 5,0 C 87 % 1020,1 hPa 0,0 l/m 1,5 km/h (1 Bft) S-SW 198 0 min 2,9 C 4,9 C 12,9 km/h (3 Bft)
18.11.2017 22:00 5,0 C 5,0 C 5,1 C 87 % 1020,5 hPa 0,0 l/m 1,4 km/h (1 Bft) S-SW 210 0 min 3,0 C 5,0 C 9,7 km/h (2 Bft)
18.11.2017 21:45 5,1 C 5,0 C 5,1 C 86 % 1020,6 hPa 0,0 l/m 2,0 km/h (1 Bft) S-SW 201 0 min 3,0 C 5,1 C 9,7 km/h (2 Bft)
18.11.2017 21:30 5,0 C 5,0 C 5,1 C 86 % 1020,7 hPa 0,0 l/m 1,7 km/h (1 Bft) W-NW 288 0 min 2,9 C 5,0 C 12,9 km/h (3 Bft)
18.11.2017 21:15 5,0 C 4,9 C 5,0 C 86 % 1020,8 hPa 0,0 l/m 1,2 km/h (1 Bft) SW 227 0 min 2,9 C 5,0 C 9,7 km/h (2 Bft)
18.11.2017 21:00 4,9 C 4,8 C 4,9 C 86 % 1021,0 hPa 0,0 l/m 0,8 km/h (0 Bft) S-SW 211 0 min 2,8 C 4,9 C 16,1 km/h (3 Bft)
_ Min-Zeit 08:30 08:30 08:30 15:00 03:45 - 08:15 - - - 20:45 08:30 09:00
Minimum _ 3,0 C 3,0 C 3,1 C 71 % 1016,7 hPa - 0,0 km/h (0 Bft) - - - 1,2 C 3,0 C 0,0 km/h (0 Bft)
_ Max-Zeit 12:45 12:45 12:45 03:00 20:45 23:45 00:30 - - 21:00 05:00 12:30 00:30
Maximum _ 7,7 C 7,5 C 7,7 C 95 % 1023,9 hPa 0,6 l/m 7,7 km/h
S-SW (2 Bft)
- - 0 min 5,1 C 7,6 C 29,0 km/h
S (5 Bft)
Durchschnitt _ 5,5 C 5,4 C 5,6 C 85 % 1019,8 hPa #4,4 l/m 1,8 km/h (1 Bft) W - #0 min. 3,2 C 5,5 C 12,1 km/h (2 Bft)